KS4XQ Weather Reports


Display with metric or nautical units.
time (UTC)temp
F
wind
direction
speed
MPH
gust
MPH
rain 1hr
in
rain 24hr
in
rain mn
in
humidity
%
barometer
mb
20260507180502 75 355 3.0 12.0 0.00 2.33 1.70 73 1009.1
20260507180006 75 303 3.0 12.0 0.00 2.33 1.70 74 1009.2
20260507175501 75 273 3.0 7.0 0.00 2.33 1.70 74 1009.2
20260507175001 75 319 3.0 9.0 0.00 2.33 1.70 76 1009.2
20260507174502 75 232 3.0 10.0 0.00 2.33 1.70 75 1009.2
20260507174004 74 289 3.0 10.0 0.00 2.33 1.70 76 1009.0
20260507173002 74 221 3.0 11.0 0.00 2.33 1.70 77 1009.1
20260507172502 74 309 2.0 11.0 0.00 2.33 1.70 76 1009.0
20260507172003 74 355 2.0 7.0 0.00 2.33 1.70 79 1009.2
20260507171502 73 257 2.0 9.0 0.00 2.33 1.70 82 1009.2
20260507171002 72 335 2.0 9.0 0.00 2.33 1.70 84 1009.3
20260507170502 71 280 1.0 6.0 0.00 2.33 1.70 85 1009.4
20260507170005 70 338 1.0 3.0 0.00 2.33 1.70 82 1009.5
20260507165001 71 331 1.0 4.0 0.00 2.34 1.70 82 1009.3
20260507164500 70 261 1.0 4.0 0.00 2.34 1.70 84 1009.5
20260507164002 71 334 2.0 6.0 0.00 2.34 1.70 83 1009.5
20260507163501 71 246 2.0 6.0 0.00 2.34 1.70 85 1009.6
20260507163000 71 196 1.0 5.0 0.00 2.34 1.70 88 1009.8
20260507162502 71 355 2.0 5.0 0.00 2.34 1.70 87 1009.8
20260507162000 71 355 2.0 9.0 0.00 2.34 1.70 87 1010.1
20260507161500 70 308 3.0 9.0 0.00 2.34 1.70 89 1010.1
20260507161000 69 259 2.0 9.0 0.00 2.34 1.70 89 1010.0
20260507160502 69 256 1.0 3.0 0.00 2.34 1.70 91 1009.9
20260507160003 68 350 2.0 4.0 0.00 2.34 1.70 93 1009.9
20260507155500 67 270 1.0 6.0 0.00 2.34 1.70 94 1009.7
20260507155002 67 284 0.0 2.0 0.00 2.34 1.70 93 1009.9
20260507154500 67 319 1.0 5.0 0.00 2.34 1.70 94 1010.1
20260507154000 67 344 1.0 5.0 0.00 2.34 1.70 94 1010.4
20260507153500 67 198 1.0 3.0 0.00 2.34 1.70 96 1010.4
20260507153000 67 321 1.0 2.0 0.00 2.34 1.70 96 1010.2
20260507152500 67 360 1.0 7.0 0.00 2.34 1.70 98 1010.3
20260507151501 66 284 1.0 4.0 0.00 2.34 1.70 98 1010.7
20260507150500 65 355 1.0 3.0 0.00 2.34 1.70 98 1010.7
20260507150005 65 355 2.0 7.0 0.00 2.34 1.70 98 1010.7
20260507145500 66 307 2.0 7.0 0.00 2.34 1.70 99 1010.7
20260507145000 65 9 1.0 4.0 0.00 2.34 1.70 99 1010.5
20260507144002 65 323 1.0 5.0 0.00 2.34 1.70 99 1010.2
20260507143000 65 279 1.0 4.0 0.01 2.34 1.70 99 1009.9
20260507142500 64 288 1.0 4.0 0.03 2.34 1.70 99 1009.6
20260507142002 64 176 0.0 1.0 0.03 2.34 1.70 99 1009.5
20260507141500 64 176 0.0 0.0 0.04 2.34 1.70 99 1009.4
20260507141000 64 176 0.0 0.0 0.05 2.34 1.70 99 1009.4
20260507140500 64 176 0.0 0.0 0.07 2.34 1.70 99 1009.5
20260507140006 64 176 0.0 0.0 0.07 2.34 1.70 99 1009.8
20260507135002 63 176 0.0 1.0 0.11 2.34 1.70 99 1009.8
20260507134501 63 176 0.0 2.0 0.13 2.34 1.70 99 1009.9
20260507134000 63 176 0.0 2.0 0.13 2.34 1.70 99 1010.1
20260507133500 63 231 0.0 2.0 0.13 2.34 1.70 99 1010.5
20260507133002 63 289 0.0 2.0 0.12 2.33 1.69 99 1010.6
20260507132500 63 289 0.0 1.0 0.10 2.31 1.67 99 1010.7
20260507132000 63 289 0.0 2.0 0.10 2.31 1.67 99 1010.8
20260507131500 63 289 0.0 2.0 0.09 2.30 1.66 99 1010.7
20260507130500 63 289 0.0 1.0 0.06 2.27 1.63 99 1010.7
20260507130005 63 289 1.0 5.0 0.05 2.26 1.62 99 1010.8
20260507125500 63 304 1.0 5.0 0.03 2.24 1.60 99 1011.0
20260507124500 63 190 0.0 0.0 0.01 2.21 1.57 99 1010.5
20260507124002 63 190 0.0 0.0 0.01 2.21 1.57 99 1010.0
20260507123500 63 190 0.0 0.0 0.02 2.21 1.57 99 1009.5
20260507123000 63 190 0.0 0.0 0.03 2.21 1.57 99 1010.0
20260507122002 62 190 0.0 0.0 0.07 2.21 1.57 99 1010.1
20260507121500 62 190 0.0 0.0 0.11 2.21 1.57 99 1010.3
20260507120500 62 190 0.0 1.0 0.17 2.21 1.57 99 1010.5
20260507120005 62 190 0.0 1.0 0.19 2.21 1.57 98 1010.5
20260507115500 62 190 1.0 2.0 0.31 2.21 1.57 99 1010.4
20260507115000 62 274 1.0 2.0 0.33 2.21 1.57 98 1010.4
20260507114503 62 272 1.0 2.0 0.32 2.20 1.56 98 1010.5
20260507114001 62 112 0.0 3.0 0.32 2.20 1.56 98 1009.9
20260507113500 62 112 1.0 3.0 0.31 2.19 1.55 98 1009.6
20260507113000 62 96 0.0 2.0 0.30 2.18 1.54 98 1009.9
20260507112502 62 104 0.0 2.0 0.28 2.16 1.52 98 1010.7
20260507112000 62 355 0.0 2.0 0.27 2.14 1.50 98 1011.2
20260507111500 62 355 1.0 2.0 0.23 2.10 1.46 99 1010.8
20260507111000 62 355 1.0 2.0 0.18 2.05 1.41 99 1011.2
20260507110003 63 355 0.0 1.0 0.15 2.01 1.37 99 1010.5
20260507105501 62 355 1.0 2.0 0.07 1.90 1.26 99 1010.7
20260507104001 62 355 0.0 0.0 0.11 1.88 1.24 99 1009.8
20260507103501 62 355 0.0 1.0 0.11 1.88 1.24 99 1009.8
20260507103001 62 355 0.0 1.0 0.11 1.88 1.24 99 1009.9
20260507102001 62 355 0.0 0.0 0.10 1.87 1.23 99 1010.1
20260507101503 62 355 0.0 0.0 0.10 1.87 1.23 98 1010.1
20260507101001 62 355 0.0 0.0 0.10 1.87 1.23 99 1010.2
20260507100500 62 355 0.0 2.0 0.09 1.86 1.22 99 1010.2
20260507100005 62 355 1.0 2.0 0.08 1.85 1.21 99 1010.3
20260507095459 62 355 1.0 3.0 0.05 1.82 1.18 98 1010.7
20260507095000 62 355 1.0 3.0 0.01 1.78 1.14 98 1010.7
20260507094500 62 234 0.0 1.0 0.03 1.78 1.14 98 1010.4
20260507094001 62 234 0.0 2.0 0.02 1.77 1.13 98 1010.0
20260507093459 62 183 0.0 2.0 0.02 1.77 1.13 98 1010.0
20260507093000 62 143 0.0 1.0 0.03 1.77 1.13 98 1010.1
20260507092459 62 143 0.0 1.0 0.03 1.77 1.13 98 1009.9
20260507091459 62 170 0.0 1.0 0.08 1.77 1.13 98 1010.1
20260507091000 62 198 1.0 3.0 0.12 1.77 1.13 98 1010.2
20260507090005 63 208 1.0 4.0 0.19 1.77 1.13 98 1009.7
20260507085459 63 316 0.0 1.0 0.23 1.77 1.13 98 1010.0
20260507084959 63 316 0.0 2.0 0.26 1.77 1.13 98 1010.1
20260507084459 63 316 1.0 2.0 0.26 1.75 1.11 98 1010.5
20260507084001 63 316 1.0 2.0 0.28 1.75 1.11 98 1010.8
20260507082959 63 316 1.0 3.0 0.32 1.74 1.10 98 1011.0
20260507082500 63 280 1.0 3.0 0.34 1.74 1.10 98 1010.6
20260507082001 63 170 0.0 2.0 0.35 1.72 1.08 98 1009.8
20260507080959 63 284 0.0 1.0 0.31 1.65 1.01 98 1011.1
20260507080459 63 284 0.0 1.0 0.28 1.60 0.96 98 1011.4
20260507080004 63 284 0.0 1.0 0.27 1.57 0.93 98 1011.4
20260507075459 63 284 0.0 1.0 0.25 1.54 0.90 98 1011.4
20260507074959 63 284 0.0 1.0 0.24 1.51 0.87 98 1011.5
20260507074459 63 284 0.0 1.0 0.26 1.49 0.85 98 1011.3
20260507073459 63 284 0.0 2.0 0.32 1.46 0.82 98 1011.2
20260507072959 63 284 1.0 3.0 0.30 1.42 0.78 98 1011.1
20260507072459 63 284 1.0 3.0 0.28 1.39 0.75 98 1011.3
20260507072001 63 284 0.0 1.0 0.29 1.37 0.73 98 1011.0
20260507071459 63 284 0.0 2.0 0.29 1.36 0.72 98 1011.2
20260507070959 63 284 0.0 2.0 0.30 1.34 0.70 98 1011.1
20260507070459 63 284 0.0 0.0 0.29 1.32 0.68 98 1010.8
20260507065459 63 284 0.0 1.0 0.27 1.29 0.65 98 1010.9
20260507064501 63 284 0.0 2.0 0.20 1.22 0.58 98 1011.5
20260507063959 63 284 0.0 2.0 0.15 1.17 0.53 98 1011.7
20260507063459 63 284 0.0 2.0 0.12 1.14 0.50 98 1011.7
20260507062501 63 284 1.0 3.0 0.11 1.11 0.47 98 1012.1
20260507061459 63 279 1.0 3.0 0.15 1.07 0.43 98 1012.6
20260507060501 63 274 0.0 0.0 0.14 1.03 0.39 98 1011.9
20260507060005 63 274 0.0 0.0 0.17 1.03 0.39 98 1011.8
20260507055459 63 274 0.0 1.0 0.18 1.02 0.38 98 1012.0
20260507054959 63 274 0.0 2.0 0.20 1.02 0.38 98 1012.0
20260507054459 63 274 0.0 1.0 0.21 1.02 0.38 98 1012.6
20260507054001 63 274 0.0 1.0 0.26 1.02 0.38 98 1012.4
20260507053459 63 276 0.0 0.0 0.30 1.02 0.38 98 1012.7
20260507052959 63 276 1.0 4.0 0.33 1.01 0.37 98 1013.1
20260507052500 63 276 1.0 4.0 0.32 1.00 0.36 98 1013.1
20260507052000 63 174 1.0 2.0 0.31 0.98 0.34 98 1013.0
20260507051459 63 67 1.0 2.0 0.26 0.92 0.28 98 1013.4
20260507051000 63 330 1.0 2.0 0.25 0.90 0.26 98 1013.9
20260507050459 63 346 1.0 2.0 0.25 0.89 0.25 98 1013.2
20260507050003 63 346 1.0 2.0 0.21 0.85 0.21 98 1013.0
20260507045500 63 339 1.0 2.0 0.20 0.84 0.20 98 1013.4
20260507044959 63 56 1.0 2.0 0.18 0.82 0.18 98 1012.8
20260507044001 63 101 1.0 2.0 0.12 0.76 0.12 98 1013.0
20260507043500 63 317 1.0 2.0 0.08 0.72 0.08 98 1013.3
20260507041500 63 198 0.0 2.0 0.02 0.66 0.02 97 1012.7
20260507041001 63 197 0.0 1.0 0.01 0.65 0.01 97 1012.4
20260507040500 63 197 0.0 0.0 0.00 0.64 0.00 97 1012.3
20260507040009 63 197 0.0 0.0 0.00 0.64 0.00 97 1012.5
20260507035502 63 197 0.0 1.0 0.00 0.64 0.64 97 1012.4
20260507035002 63 197 0.0 2.0 0.00 0.64 0.64 97 1012.6
20260507034504 63 197 0.0 2.0 0.00 0.64 0.64 97 1012.6
20260507033502 63 204 0.0 1.0 0.00 0.64 0.64 97 1012.7
20260507033002 63 204 0.0 0.0 0.00 0.64 0.64 97 1012.8
20260507032504 63 204 0.0 1.0 0.00 0.64 0.64 97 1012.8
20260507031502 63 204 0.0 1.0 0.00 0.64 0.64 96 1012.8
20260507030501 63 204 0.0 1.0 0.01 0.64 0.64 97 1013.0
20260507030007 63 204 0.0 2.0 0.01 0.64 0.64 96 1012.7
20260507025502 63 204 1.0 3.0 0.01 0.64 0.64 96 1012.3
20260507024502 63 188 1.0 4.0 0.01 0.64 0.64 96 1012.2
20260507024003 63 200 3.0 5.0 0.02 0.64 0.64 96 1012.5
20260507023501 63 203 2.0 5.0 0.02 0.64 0.64 96 1012.2
20260507023002 63 219 1.0 3.0 0.03 0.64 0.64 96 1012.7
20260507022502 63 265 0.0 2.0 0.03 0.64 0.64 96 1012.8
20260507022004 63 299 0.0 1.0 0.04 0.64 0.64 96 1013.0
20260507021502 63 323 0.0 1.0 0.06 0.64 0.64 96 1013.1
20260507021002 63 323 0.0 2.0 0.07 0.64 0.64 96 1013.1
20260507020502 64 79 1.0 2.0 0.08 0.63 0.63 95 1012.4
20260507020006 64 141 1.0 2.0 0.15 0.63 0.63 95 1013.0
20260507015502 64 141 0.0 1.0 0.39 0.63 0.63 95 1013.3
20260507015004 64 141 0.0 1.0 0.55 0.63 0.63 95 1013.7
20260507014502 64 141 0.0 2.0 0.60 0.63 0.63 95 1014.0
20260507014005 64 141 1.0 2.0 0.59 0.62 0.62 96 1014.0
20260507013501 64 95 0.0 2.0 0.59 0.62 0.62 96 1014.1
20260507012503 64 95 0.0 1.0 0.58 0.61 0.61 95 1014.0
20260507011504 64 355 0.0 2.0 0.55 0.58 0.58 95 1014.3
20260507010005 64 97 2.0 5.0 0.42 0.44 0.44 95 1013.3
20260507005504 64 283 2.0 5.0 0.22 0.24 0.24 95 1014.9
20260507004003 65 301 1.0 3.0 0.01 0.03 0.03 94 1011.9
20260507003503 65 14 1.0 3.0 0.01 0.03 0.03 93 1011.1
20260507003005 65 49 1.0 3.0 0.01 0.03 0.03 93 1010.9
20260507002503 65 95 1.0 2.0 0.01 0.03 0.03 93 1010.8
20260507002002 65 217 0.0 1.0 0.02 0.03 0.03 93 1011.5
20260507001503 65 294 0.0 3.0 0.02 0.03 0.03 93 1011.9
20260507000503 65 34 0.0 1.0 0.01 0.02 0.02 93 1012.4
20260507000005 65 350 0.0 1.0 0.01 0.02 0.02 92 1012.5
20260506235503 65 301 1.0 2.0 0.01 0.02 0.02 92 1013.0
20260506235003 65 301 1.0 2.0 0.01 0.02 0.02 92 1012.9
20260506234503 66 111 0.0 2.0 0.01 0.02 0.02 92 1012.8
20260506234002 66 97 0.0 1.0 0.01 0.02 0.02 91 1013.2
20260506233505 66 323 0.0 2.0 0.01 0.02 0.02 92 1013.1
20260506233002 66 323 1.0 3.0 0.01 0.02 0.02 91 1013.3
20260506232502 66 27 1.0 3.0 0.01 0.02 0.02 90 1013.0
20260506232004 67 5 1.0 6.0 0.00 0.01 0.01 89 1013.0
20260506231502 68 33 3.0 8.0 0.00 0.01 0.01 87 1012.9
20260506231003 69 350 3.0 8.0 0.00 0.01 0.01 85 1013.0
20260506230502 70 92 3.0 8.0 0.00 0.01 0.01 83 1013.2
20260506230004 71 25 2.0 6.0 0.00 0.01 0.01 83 1013.4
20260506225502 71 327 1.0 3.0 0.00 0.01 0.01 82 1012.8
20260506225004 72 320 1.0 2.0 0.00 0.01 0.01 84 1011.8
20260506224502 72 99 0.0 1.0 0.00 0.01 0.01 83 1011.7
20260506224002 73 151 0.0 1.0 0.00 0.01 0.01 82 1011.4
20260506223004 73 280 0.0 1.0 0.00 0.01 0.01 82 1011.6
20260506222502 73 280 0.0 1.0 0.00 0.01 0.01 82 1011.7
20260506222002 74 280 0.0 1.0 0.00 0.01 0.01 82 1011.8
20260506221502 74 280 0.0 1.0 0.00 0.01 0.01 82 1011.8
20260506221004 74 280 0.0 0.0 0.00 0.01 0.01 82 1011.9
20260506220503 73 280 0.0 0.0 0.00 0.01 0.01 82 1011.9
20260506220005 74 280 0.0 1.0 0.00 0.01 0.01 81 1012.1
20260506215504 74 280 0.0 1.0 0.00 0.01 0.01 81 1012.1
20260506215002 74 280 0.0 0.0 0.00 0.01 0.01 82 1011.9
20260506214502 74 280 0.0 0.0 0.00 0.01 0.01 82 1011.9
20260506214003 74 280 0.0 0.0 0.00 0.01 0.01 82 1011.9
20260506213003 74 280 0.0 0.0 0.00 0.01 0.01 80 1012.2
20260506212502 74 280 0.0 0.0 0.00 0.01 0.01 80 1012.3
20260506212004 74 280 0.0 0.0 0.00 0.01 0.01 81 1012.4
20260506211502 74 280 0.0 0.0 0.00 0.01 0.01 80 1012.5
20260506211003 74 280 0.0 0.0 0.00 0.01 0.01 80 1012.7
20260506210006 74 280 0.0 0.0 0.00 0.01 0.01 79 1012.7
20260506205503 74 280 0.0 0.0 0.00 0.01 0.01 79 1012.7
20260506205002 74 280 0.0 0.0 0.00 0.01 0.01 79 1012.7
20260506204502 74 280 0.0 1.0 0.00 0.01 0.01 79 1012.9
20260506204004 74 280 0.0 1.0 0.00 0.01 0.01 78 1013.0
20260506203502 74 280 0.0 1.0 0.00 0.01 0.01 77 1013.0
20260506203002 74 280 0.0 1.0 0.00 0.01 0.01 77 1013.0
20260506202004 74 280 1.0 2.0 0.00 0.01 0.01 77 1013.3
20260506201502 75 280 1.0 2.0 0.00 0.01 0.01 76 1013.4
20260506201002 75 280 1.0 3.0 0.00 0.01 0.01 76 1013.3
20260506200503 75 280 1.0 4.0 0.00 0.01 0.01 74 1013.3
20260506200005 75 300 2.0 7.0 0.00 0.01 0.01 73 1013.5
20260506195501 76 310 3.0 7.0 0.00 0.01 0.01 72 1013.5
20260506195001 77 272 3.0 7.0 0.00 0.01 0.01 71 1013.5
20260506194502 77 227 2.0 8.0 0.00 0.01 0.01 71 1013.4
20260506194002 77 282 2.0 8.0 0.00 0.01 0.01 71 1013.3
20260506193501 77 239 2.0 10.0 0.00 0.01 0.01 71 1013.5
20260506192501 77 276 2.0 5.0 0.00 0.01 0.01 73 1013.8
20260506192003 77 331 3.0 10.0 0.00 0.01 0.01 72 1013.8
20260506191500 76 290 3.0 9.0 0.00 0.01 0.01 73 1013.9
20260506191001 77 5 5.0 13.0 0.00 0.01 0.01 71 1014.0
20260506190503 76 241 4.0 12.0 0.00 0.01 0.01 72 1014.2
20260506190006 76 299 4.0 12.0 0.00 0.01 0.01 74 1014.1
20260506185501 75 275 4.0 13.0 0.00 0.01 0.01 78 1014.1
20260506184502 75 282 4.0 11.0 0.00 0.01 0.01 75 1014.1
20260506184003 75 231 4.0 11.0 0.00 0.01 0.01 76 1014.0
20260506183502 74 294 3.0 10.0 0.00 0.01 0.01 77 1014.2
20260506183001 73 265 2.0 10.0 0.00 0.01 0.01 81 1014.2
20260506182501 72 275 2.0 10.0 0.00 0.01 0.01 82 1014.1
20260506182003 72 295 2.0 8.0 0.00 0.01 0.01 83 1013.9
20260506181502 72 207 2.0 9.0 0.00 0.01 0.01 82 1014.0